User: anonymous   Login
Location: Lawrence
(38.9720°N, 95.2350°W)
Time: 18:35:43
(UTC-05:00)
Language:

ALOS - Orbit

View from above orbital plane
View from above orbital plane
View from above satellite
View from above satellite

Ground track
Ground track

The orbit data is extracted from the following two-line orbital elements,

1 28931U 06002A   15153.56313567  .00000386  00000-0  86065-4 0  9998
2 28931 097.9327 203.5503 0002282 116.2948 243.8489 14.61868607498506
Epoch (UTC): 02 June 2015 13:30:54
Eccentricity: 0.0002282
inclination: 97.9327°
perigee height: 685 km
apogee height: 689 km
right ascension of ascending node: 203.5503°
argument of perigee: 116.2948°
revolutions per day: 14.61868607
mean anomaly at epoch: 243.8489°
orbit number at epoch: 49850

The dashed part of the orbit path shows where the satellite is in the earth's shadow,  

DLR